Eagle, AK

6:09 AM AKDT on September 19, 2017 (GMT -0800)
Eagle

Weather History for PAEG - September, 2013

Change the Weather History Date:

Thursday, September 5, 2013

  Actual Average (PABN) Record (PABN)
Temperature  
Mean Temperature 48 °F -  
Max Temperature 64 °F 49 °F 69 °F (2002)
Min Temperature 32 °F 36 °F 24 °F (2004)
Degree Days  
Heating Degree Days 18    
Moisture  
Dew Point 36 °F    
Average Humidity 69    
Maximum Humidity 97    
Minimum Humidity 35    
Precipitation  
Precipitation 0.00 in - - ()
Sea Level Pressure  
Sea Level Pressure 29.88 in    
Wind  
Wind Speed 2 mph (SSE)    
Max Wind Speed 10 mph    
Max Gust Speed 22 mph    
Visibility 10 miles    
Events      
Averages and records for this station are not official NWS values.
T = Trace of Precipitation, MM = Missing Value Source: NWS Daily Summary

Daily Weather History Graph

Daily Weather History Graph

Search for Another Location

Airport or City:

Trip Planner

Search our weather history database for the weather conditions in past years. The results will help you decide how hot, cold, wet, or windy it might be!

Date:

Astronomy

Sep. 05, 2013 Rise Set
Actual Time 6:18 AM AKDT 8:26 PM AKDT
Civil Twilight 5:25 AM AKDT 9:18 PM AKDT
Nautical Twilight 4:12 AM AKDT 10:29 PM AKDT
Astronomical Twilight 2:11 AM AKDT 12:21 AM AKDT
Moon 7:05 AM AKDT (9/5) 7:44 PM AKDT (9/5)
Length of Visible Light 15h 53m
Length of Day
14h 07m
New Moon, 0% of the Moon is Illuminated
Sep 5
New Moon
Sep 12
First Quarter
Sep 19
Full
Sep 26
Last Quarter
Oct 4
New

Hourly Weather History & Observations

Time (AKDT) Temp. Windchill Dew Point Humidity Pressure Visibility Wind Dir Wind Speed Gust Speed Precip Events Conditions
12:53 AM 37.0 °F - 36.0 °F 96% 29.72 in 10.0 mi Calm Calm - N/A   Scattered Clouds
1:53 AM 33.1 °F - 32.0 °F 96% 29.74 in 10.0 mi Calm Calm - N/A   Clear
2:53 AM 32.0 °F - 30.9 °F 96% 29.76 in 10.0 mi Calm Calm - N/A   Partly Cloudy
3:53 AM 33.1 °F 30.0 °F 32.0 °F 96% 29.78 in 10.0 mi SW 3.5 mph - N/A   Partly Cloudy
4:53 AM 36.0 °F - 34.0 °F 93% 29.81 in 10.0 mi Calm Calm - N/A   Mostly Cloudy
5:53 AM 36.0 °F - 35.1 °F 97% 29.83 in 10.0 mi Calm Calm - N/A   Overcast
6:53 AM 37.0 °F - 36.0 °F 96% 29.84 in 10.0 mi Calm Calm - N/A   Overcast
7:53 AM 39.0 °F - 37.9 °F 96% 29.86 in 10.0 mi Calm Calm - N/A   Scattered Clouds
8:53 AM 46.0 °F - 42.1 °F 86% 29.88 in 10.0 mi Calm Calm - N/A   Mostly Cloudy
9:53 AM 53.1 °F - 41.0 °F 64% 29.89 in 10.0 mi SE 9.2 mph 19.6 mph N/A   Mostly Cloudy
10:53 AM 57.0 °F - 41.0 °F 55% 29.90 in 10.0 mi ESE 9.2 mph 21.9 mph N/A   Clear
11:53 AM 59.0 °F - 39.0 °F 48% 29.91 in 10.0 mi SE 9.2 mph 20.7 mph N/A   Clear
12:53 PM 61.0 °F - 39.0 °F 44% 29.91 in 10.0 mi SE 10.4 mph 20.7 mph N/A   Clear
1:53 PM 63.0 °F - 37.9 °F 40% 29.91 in 10.0 mi ESE 8.1 mph - N/A   Clear
2:53 PM 63.0 °F - 35.1 °F 35% 29.93 in 10.0 mi South 9.2 mph 19.6 mph N/A   Clear
3:53 PM 62.1 °F - 36.0 °F 38% 29.93 in 10.0 mi South 4.6 mph - N/A   Clear
4:53 PM 62.1 °F - 35.1 °F 37% 29.93 in 10.0 mi South 5.8 mph - N/A   Clear
5:53 PM 62.1 °F - 36.0 °F 38% 29.93 in 10.0 mi Calm Calm - N/A   Clear
6:53 PM 63.0 °F - 35.1 °F 35% 29.93 in 10.0 mi Variable 4.6 mph - N/A   Clear
7:53 PM 57.9 °F - 36.0 °F 44% 29.94 in 10.0 mi South 3.5 mph - N/A   Clear
8:53 PM 48.9 °F - 39.0 °F 69% 29.96 in 10.0 mi Calm Calm - N/A   Clear
9:53 PM 41.0 °F - 36.0 °F 82% 29.97 in 10.0 mi Calm Calm - N/A   Clear
10:53 PM 37.0 °F - 33.1 °F 86% 29.98 in 10.0 mi Calm Calm - N/A   Clear
11:53 PM 35.1 °F 32.2 °F 32.0 °F 89% 30.00 in 10.0 mi South 3.5 mph - N/A   Clear